Location: Waco, TX
(31.5480°N, 97.1670°W)
Time: 13:49:28

ISS - Pass Details

Date: 17 March 2018
Orbit: 403 x 406 km, 51.6° (Epoch: 21 March)

Event Time Altitude Azimuth Distance (km) Brightness Sun altitude
Rises 22:40:19 0° 209° (SSW) 2,307 - -38.4°
Reaches altitude 10° 22:42:27 10° 202° (SSW) 1,452 - -38.8°
Maximum altitude 22:45:32 40° 131° (SE) 610 - -39.3°
Drops below altitude 10° 22:48:38 10° 60° (ENE) 1,460 - -39.9°
Sets 22:50:47 0° 53° (NE) 2,323 - -40.3°
